Location: Bun Machan
(52.1403°N, 7.3744°W)
Time: 17:26:41
(UTC+00:00)

Cosmos 1934 Rocket - Pass Details

Date: 14 July 2020
Orbit: 938 x 998 km, 83.0° (Epoch: 12 August)

Event Time Altitude Azimuth Distance (km) Brightness Sun altitude
Exits shadow 01:15:56 21° 212° (SSW) 2,043 5.1 -15.7°
Maximum altitude 01:20:10 59° 285° (WNW) 1,128 4.3 -15.6°
Drops below altitude 10° 01:26:25 10° 5° (N) 2,762 7.7 -15.4°
Sets 01:29:02 0° 9° (N) 3,721 8.9 -15.3°
